Regional Weather Roundup
Issued by NWS

Home | Current Version | Previous Version | Text Only | Print | Product List | Glossary On
Versions: 1 2 3 4 5 6 7 8 9 10 11 12 13 14 15 16 17 18 19 20 21 22 23 24 25 26 27 28 29 30 31 32 33 34 35 36 37 38 39 40 41 42 43 44 45 46 47 48 49 50
877
ASUS43 KBIS 251110
RWRND

NORTH DAKOTA REGIONAL WEATHER ROUNDUP
NATIONAL WEATHER SERVICE BISMARCK ND
600 AM CDT MON JUL 25 2016

NOTE: "FAIR" INDICATES FEW OR NO CLOUDS BELOW 12,000 FEET WITH NO
SIGNIFICANT WEATHER AND/OR OBSTRUCTIONS TO VISIBILITY.


NDZ001>003-009>011-017-251200-
NORTHWEST NORTH DAKOTA

CITY           SKY/WX    TMP DP  RH WIND       PRES   REMARKS
WILLISTON      CLEAR     60  55  83 N3        29.97S
MINOT          CLEAR     61  58  90 CALM      29.99F
MINOT AFB      CLEAR     56  55  94 SE3       29.98F
$$

NDZ018>021-031>035-040>046-251200-
SOUTHWEST NORTH DAKOTA

CITY           SKY/WX    TMP DP  RH WIND       PRES   REMARKS
BISMARCK       CLEAR     59  58  96 E5        30.02F
DICKINSON      CLEAR     56  50  80 S12       29.99S
GARRISON         N/A     59  58  96 E5        30.00S
HETTINGER ARPT CLEAR     62  50  64 SE3       30.03S
$$

NDZ004>008-012>016-024-026-027-054-251200-
NORTHEAST NORTH DAKOTA

CITY           SKY/WX    TMP DP  RH WIND       PRES   REMARKS
GRAND FORKS    PTCLDY    59  56  89 W3        29.99R
GRND FRKS AFB  CLEAR     60  57  92 W5        30.00R
DEVILS LAKE    CLEAR     61  59  93 W5        30.03S
$$

NDZ022-023-025-028>030-036>039-047>053-251200-
SOUTHEAST NORTH DAKOTA

CITY           SKY/WX    TMP DP  RH WIND       PRES   REMARKS
FARGO          PTCLDY    57  55  93 CALM      30.02R
JAMESTOWN      CLEAR     58  57  97 CALM      30.03S
$$





USA.gov is the U.S. government's official web portal to all federal, state and local government web resources and services.